Moffett NAS, CA

3:43 PM PDT on October 18, 2017 (GMT -0700)
Moffett Federal Air Field

Weather History for KNUQ - January, 2013

Change the Weather History Date:

Saturday, January 5, 2013

  Actual Average Record
Temperature  
Mean Temperature 48 °F 50 °F  
Max Temperature 57 °F 58 °F 67 °F (1986)
Min Temperature 38 °F 42 °F 21 °F (1949)
Degree Days  
Heating Degree Days 17    
Month to date heating degree days 95  
Since 1 July heating degree days 861  
Cooling Degree Days 0    
Month to date cooling degree days 0  
Year to date cooling degree days 0  
Moisture  
Dew Point 43 °F    
Average Humidity 78    
Maximum Humidity 89    
Minimum Humidity 66    
Precipitation  
Precipitation 0.05 in 0.10 in 1.32 in (1959)
Month to date precipitation 0.05 0.52  
Year to date precipitation 0.05 0.52  
Since 1 July precipitation 7.82  
Sea Level Pressure  
Sea Level Pressure 30.20 in    
Wind  
Wind Speed 5 mph (SE)    
Max Wind Speed 20 mph    
Max Gust Speed 23 mph    
Visibility 10 miles    
Events Rain    
T = Trace of Precipitation, MM = Missing Value Source: NWS Daily Summary

Daily Weather History Graph

Daily Weather History Graph

Search for Another Location

Airport or City:

Trip Planner

Search our weather history database for the weather conditions in past years. The results will help you decide how hot, cold, wet, or windy it might be!

Date:

Astronomy

Jan. 05, 2013 Rise Set
Actual Time 7:23 AM PST 5:04 PM PST
Civil Twilight 6:54 AM PST 5:33 PM PST
Nautical Twilight 6:21 AM PST 6:06 PM PST
Astronomical Twilight 5:49 AM PST 6:37 PM PST
Moon 12:39 AM PST (1/5) 11:54 AM PST (1/5)
Length of Visible Light 10h 39m
Length of Day
9h 41m
Last Quarter, 43% of the Moon is Illuminated
Jan 5
Last Quarter
Jan 11
New
Jan 18
First Quarter
Jan 26
Full
Feb 3
Last Quarter

Hourly Weather History & Observations

Time (PST) Temp. Windchill Dew Point Humidity Pressure Visibility Wind Dir Wind Speed Gust Speed Precip Events Conditions
12:56 AM 42.1 °F - 37.0 °F 82% 30.24 in 10.0 mi Calm Calm - N/A   Clear
1:56 AM 41.0 °F 38.0 °F 37.0 °F 86% 30.25 in 10.0 mi West 4.6 mph - N/A   Clear
2:56 AM 41.0 °F - 37.0 °F 86% 30.25 in 10.0 mi Calm Calm - N/A   Clear
3:56 AM 39.0 °F 36.8 °F 36.0 °F 89% 30.26 in 10.0 mi ESE 3.5 mph - N/A   Clear
4:56 AM 41.0 °F 39.0 °F 37.0 °F 86% 30.26 in 10.0 mi SSW 3.5 mph - N/A   Clear
5:56 AM 39.9 °F 37.8 °F 36.0 °F 86% 30.27 in 10.0 mi SE 3.5 mph - N/A   Scattered Clouds
6:56 AM 42.1 °F 40.2 °F 37.9 °F 85% 30.28 in 10.0 mi SSE 3.5 mph - N/A   Mostly Cloudy
7:15 AM 42.8 °F 41.1 °F 39.2 °F 87% 30.27 in 10.0 mi SSE 3.5 mph - N/A   Overcast
7:47 AM 44.6 °F - 39.2 °F 81% 30.27 in 10.0 mi Calm Calm - N/A   Overcast
7:56 AM 44.1 °F - 39.0 °F 82% 30.28 in 9.0 mi Calm Calm - N/A   Overcast
8:56 AM 48.0 °F - 42.1 °F 80% 30.28 in 9.0 mi South 4.6 mph - N/A   Overcast
9:56 AM 48.9 °F - 43.0 °F 80% 30.28 in 9.0 mi Calm Calm - N/A   Overcast
10:56 AM 51.1 °F - 45.0 °F 80% 30.22 in 7.0 mi ESE 12.7 mph - N/A   Mostly Cloudy
11:06 AM 53.6 °F - 46.4 °F 77% 30.19 in 10.0 mi ESE 19.6 mph 23.0 mph N/A   Mostly Cloudy
11:09 AM 53.6 °F - 44.6 °F 72% 30.19 in 10.0 mi ESE 16.1 mph 23.0 mph N/A   Mostly Cloudy
11:18 AM 53.6 °F - 44.6 °F 72% 30.20 in 10.0 mi SE 9.2 mph - N/A   Scattered Clouds
11:42 AM 53.6 °F - 44.6 °F 72% 30.21 in 10.0 mi South 5.8 mph - N/A   Mostly Cloudy
11:56 AM 55.0 °F - 46.0 °F 72% 30.21 in 10.0 mi Variable 5.8 mph - N/A   Scattered Clouds
12:56 PM 55.9 °F - 46.0 °F 69% 30.19 in 10.0 mi ESE 4.6 mph - N/A   Clear
1:56 PM 55.9 °F - 44.1 °F 64% 30.17 in 10.0 mi Calm Calm - N/A   Mostly Cloudy
2:56 PM 55.9 °F - 44.1 °F 64% 30.15 in 10.0 mi SSE 9.2 mph - N/A   Overcast
3:56 PM 55.0 °F - 45.0 °F 69% 30.13 in 10.0 mi SSE 11.5 mph 20.7 mph 0.00 in Rain Light Rain
4:56 PM 54.0 °F - 45.0 °F 72% 30.12 in 10.0 mi SE 12.7 mph 19.6 mph 0.00 in   Overcast
5:16 PM 53.6 °F - 44.6 °F 72% 30.11 in 10.0 mi SE 8.1 mph - N/A   Overcast
5:56 PM 53.1 °F - 46.0 °F 77% 30.12 in 10.0 mi SSE 6.9 mph - N/A   Overcast
6:56 PM 52.0 °F - 46.0 °F 80% 30.11 in 10.0 mi SE 9.2 mph - 0.00 in Rain Light Rain
7:56 PM 51.1 °F - 48.0 °F 89% 30.12 in 10.0 mi SE 5.8 mph - 0.03 in Rain Light Rain
8:56 PM 51.1 °F - 48.0 °F 89% 30.11 in 10.0 mi Calm Calm - 0.00 in   Overcast
9:56 PM 48.9 °F - 46.9 °F 93% 30.11 in 10.0 mi Calm Calm - 0.01 in Rain Light Rain
10:56 PM 51.1 °F - 46.9 °F 86% 30.11 in 10.0 mi Calm Calm - 0.00 in Rain Light Rain
11:56 PM 50.0 °F - 46.9 °F 89% 30.10 in 10.0 mi ESE 5.8 mph - 0.01 in   Overcast